This demonstration page uses our WeatherBlox Daily Observations layout. Learn more.

Left ArrowRight Arrow

Hourly Observations for February 21, 2016

Temp ( °F °C ) Dew Point ( °F °C ) Humidity (%) Winds ( mph kmh ) Pressure ( in mb ) Visibility ( mi km ) Precip ( " mm )
12:58 am 00:58 Mostly Cloudy 38 3.4 34 1.1 85 85 NE 3 6 30.12 1020 10 16 0.00 0.00
1:58 am 01:58 Cloudy 37 3 34 1.1 87 87 NE 5 7 30.10 1019 10 16 0.00 0.00
2:58 am 02:58 Mostly Clear 36 2.2 33 0.6 89 89 NNE 7 11 30.11 1020 10 16 0.00 0.00
3:58 am 03:58 Cloudy 35 1.5 33 0.4 92 92 NNW 6 9 30.16 1021 10 16 0.00 0.00
4:58 am 04:58 Cloudy 35 1.8 33 0.5 91 91 N 2 4 30.16 1021 10 16 0.00 0.00
5:58 am 05:58 Cloudy 34 1.2 33 0.4 94 94 NNW 6 9 30.20 1023 10 16 0.00 0.00
6:31 am 06:31 Cloudy 36 2 32 0 87 87 NNW 7 11 30.24 1024 10 16 0.00 0.00
6:38 am 06:38 Cloudy 36 2 32 0 87 87 NW 7 11 30.24 1024 10 16 0.00 0.00
6:58 am 06:58 Cloudy 36 2.4 33 0.6 88 88 NNW 6 9 30.22 1023 10 16 0.00 0.00
7:25 am 07:25 Cloudy 36 2 32 0 87 87 NNW 6 9 30.24 1024 10 16 0.00 0.00
7:57 am 07:57 Partly Cloudy 36 2 32 0 87 87 N 2 4 30.27 1025 10 16 0.00 0.00
7:58 am 07:58 Partly Cloudy 36 2 32 0 87 87 N 2 4 30.24 1024 10 16 0.00 0.00
8:51 am 08:51 Cloudy 39 4 32 0 75 75 N 6 9 30.24 1024 10 16 0.00 0.00
8:58 am 08:58 Cloudy 38 3.6 33 0.6 81 81 VRB 1 2 30.24 1024 10 16 0.00 0.00
9:06 am 09:06 Mostly Cloudy 39 4 34 1 81 81 NE 5 7 30.24 1024 10 16 0.00 0.00
9:07 am 09:07 Cloudy 39 4 34 1 81 81 NE 5 7 30.24 1024 10 16 0.00 0.00
9:36 am 09:36 Cloudy 41 5 34 1 76 76 N 7 11 30.27 1025 10 16 0.00 0.00
9:58 am 09:58 Cloudy 40 4.7 34 1.2 78 78 NW 8 13 30.27 1025 10 16 0.00 0.00
10:41 am 10:41 Partly Cloudy 41 5 34 1 76 76 NNW 6 9 30.27 1025 10 16 0.00 0.00
10:58 am 10:58 Mostly Sunny 43 6.2 35 1.8 74 74 WNW 5 7 30.27 1025 10 16 0.00 0.00
11:10 am 11:10 Mostly Cloudy 45 7 36 2 71 71 NNW 8 13 30.27 1025 10 16 0.00 0.00
11:30 am 11:30 Partly Cloudy 45 7 36 2 71 71 NW 5 7 30.27 1025 10 16 0.00 0.00
11:58 am 11:58 Cloudy 45 7.2 35 1.9 69 69 WNW 9 15 30.27 1025 10 16 0.00 0.00
12:51 pm 12:51 Cloudy 46 8 36 2 66 66 W 5 7 30.24 1024 10 16 0.00 0.00
12:53 pm 12:53 Cloudy 46 8 36 2 66 66 W 5 7 30.24 1024 10 16 0.00 0.00
12:58 pm 12:58 Cloudy 47 8.1 36 2.2 67 67 VRB 2 4 30.24 1024 10 16 0.00 0.00
1:00 pm 13:00 Cloudy 46 8 36 2 66 66 VRB 6 9 30.24 1024 10 16 0.00 0.00
1:50 pm 13:50 Cloudy 48 9 36 2 62 62 WNW 9 15 30.24 1024 10 16 0.00 0.00
1:58 pm 13:58 Cloudy 48 9 36 2.4 64 64 WNW 10 17 30.23 1024 10 16 0.00 0.00
2:15 pm 14:15 Cloudy 50 10 37 3 62 62 WNW 9 15 30.24 1024 10 16 0.00 0.00
2:58 pm 14:58 Partly Cloudy 51 10.8 36 2 55 55 NW 12 19 30.22 1023 10 16 0.00 0.00
3:58 pm 15:58 Mostly Cloudy 51 10.3 35 1.8 56 56 WNW 10 17 30.21 1023 10 16 0.00 0.00
4:14 pm 16:14 Cloudy 52 11 37 3 58 58 N 14 22 30.18 1022 10 16 0.00 0.00
4:58 pm 16:58 Cloudy 49 9.2 38 3.3 67 67 N 12 19 30.23 1024 10 16 0.00 0.00
5:30 pm 17:30 Cloudy 46 8 37 3 71 71 N 9 15 30.24 1024 10 16 0.00 0.00
5:39 pm 17:39 Cloudy 46 8 37 3 71 71 N 10 17 30.24 1024 10 16 0.00 0.00
5:58 pm 17:58 Cloudy 46 7.6 37 2.8 72 72 NW 9 15 30.24 1024 10 16 0.00 0.00
6:34 pm 18:34 Cloudy 45 7 37 3 76 76 N 8 13 30.24 1024 10 16 0.00 0.00
6:58 pm 18:58 Cloudy 44 6.6 37 2.9 77 77 N 9 15 30.26 1025 10 16 0.00 0.00
7:58 pm 19:58 Cloudy 43 5.9 37 3 82 82 NNW 6 9 30.27 1025 10 16 0.00 0.00
8:57 pm 20:57 Cloudy 41 5 37 3 87 87 WNW 8 13 30.27 1025 10 16 0.00 0.00
8:58 pm 20:58 Cloudy 41 5 37 3 87 87 WNW 8 13 30.27 1025 10 16 0.00 0.00
9:01 pm 21:01 Cloudy 41 5 37 3 87 87 NW 8 13 30.27 1025 10 16 0.00 0.00
9:52 pm 21:52 Cloudy 41 5 37 3 87 87 NNW 7 11 30.27 1025 10 16 0.00 0.00
9:54 pm 21:54 Cloudy 41 5 37 3 87 87 NNW 7 11 30.27 1025 10 16 0.00 0.00
9:58 pm 21:58 Cloudy 41 5.2 37 3 86 86 N 8 13 30.26 1025 10 16 0.00 0.00
9:59 pm 21:59 Cloudy with Light Rain 41 5 37 3 87 87 N 8 13 30.27 1025 10 16 0.00 0.00
10:01 pm 22:01 Cloudy with Light Rain 41 5 37 3 87 87 NNW 7 11 30.27 1025 10 16 0.00 0.00
10:17 pm 22:17 Cloudy 41 5 37 3 87 87 NNW 5 7 30.27 1025 10 16 0.00 0.00
10:18 pm 22:18 Cloudy 41 5 37 3 87 87 NNW 7 11 30.27 1025 10 16 0.00 0.00
10:58 pm 22:58 Cloudy 41 4.8 37 2.9 88 88 NW 6 9 30.27 1025 10 16 0.00 0.03
11:58 pm 23:58 Cloudy 40 4.7 35 1.4 79 79 NW 7 11 30.27 1025 10 16 0.00 0.00

Powered by AerisWeather